Kosmos-1861

operational
NORAD ID: 18129 Int'l Des: 1987-054 Owner: VMF Country: SU
LEOCIRCULARPOLAR
追跡 地上

Kosmos-1861について

説明を読み込み中...

リアルタイム位置

3D地球を読み込み中...

次回通過

高度履歴

Altitude vs Time

uPlot chart will show altitude changes over time

軌道要素

1 18129U 87054A 26073.43704345 .00000067 00000-0 56590-4 0 9995
2 18129 82.9271 32.9768 0010768 211.7807 266.3396 13.73258659940530
Epoch: Mar 14, 2026 • Age: 10 hours

現在のステータス

高度 1012.8 km
速度 7.35 km/s
衛星直下点 -80.51°S, 127.38°W
打ち上げ日 Jun 23, 1987
運用期間 38.7 years
タイプ other

技術仕様

分類 Payload
質量 800.00 kg
乾燥質量 800.00 kg
総質量 800.00 kg
長さ 5.00 m
直径 2.10 m
スパン 17.00 m
形状 Cyl + Ant
製造者 OAZ
バスタイプ KAUR-1 11F643
フェーズステータス In Orbit
所有者/国 VMF/SU

大規模コンステレーション

Loading constellations...